Regional Weather Roundup
Issued by NWS

Home | Current Version | Previous Version | Graphics & Text | Print | Product List | Glossary On
Versions: 1 2 3 4 5 6 7 8 9 10 11 12 13 14 15 16 17 18 19 20 21 22 23 24 25 26 27 28 29 30 31 32 33 34 35 36 37 38 39 40 41 42 43 44 45 46 47 48 49 50
817
ASUS44 KJAN 200610
RWRMS

MISSISSIPPI HOURLY WEATHER ROUNDUP
NATIONAL WEATHER SERVICE JACKSON MS
100 AM CDT WED AUG 20 2014

NOTE: "FAIR: INDICATES FEW OR NO CLOUDS BELOW 12,000 FEET WITH NO
SIGNIFICANT WEATHER AND/OR OBSTRUCTIONS TO VISIBILITY.

MSZ001>002-007>008-010>013-018>021-025>028-034>036-200700-
NORTHWEST MISSISSIPPI

CITY           SKY/WX    TMP DP  RH WIND       PRES   REMARKS
CLARKSDALE     FAIR      77  77 100 S5        29.92S
CLEVELAND      FAIR      75  72  91 S7        29.92F
GREENWOOD      FAIR      76  73  91 S3        29.93F
6HR MIN TEMP:  75; 6HR MAX TEMP:  84;

GREENVILLE       N/A    N/A N/A N/A MISG      29.93R
GRENADA        FAIR      77  72  83 CALM      29.93F
OLIVE BRANCH   CLEAR     81  81 100 SW8       29.91S HX  91
OXFORD         FAIR      77  72  83 SW6       29.95S
TUNICA         FAIR      77  73  88 SW5       29.91F
$$

MSZ003>006-009-014>017-022>024-029>033-037>039-200700-
NORTHEAST MISSISSIPPI

CITY           SKY/WX    TMP DP  RH WIND       PRES   REMARKS
BELMONT        FAIR      76  74  92 S5        29.94F
COLUMBUS AFB   FAIR      76  70  81 S5        29.94S
6HR MIN TEMP:  76; 6HR MAX TEMP:  88;

CORINTH        FAIR      75  72  88 CALM      29.91S
GOLDN TRIANGLE FAIR      75  66  73 CALM      29.95S
STARKVILLE     FAIR      75  70  83 SW3       29.94F
TUPELO         FAIR      78  74  87 SW5       29.93R
6HR MIN TEMP:  78; 6HR MAX TEMP:  90;

$$

MSZ040-058-200700-
CENTRAL MISSISSIPPI

CITY           SKY/WX    TMP DP  RH WIND       PRES   REMARKS
JACKSON INTL   FAIR      77  74  90 CALM      29.96F
6HR MIN TEMP:  77; 6HR MAX TEMP:  87;

JACKSON HAWKNS FAIR      79  73  82 W5        29.97F
6HR MIN TEMP:  79; 6HR MAX TEMP:  87;

MERIDIAN KEY   FAIR      70  68  93 SW3       29.97F
6HR MIN TEMP:  70; 6HR MAX TEMP:  75; 6HR PCP:  0.01;

MERIDIAN NAS   FAIR      71  68  90 CALM      29.96F
6HR MIN TEMP:  71; 6HR MAX TEMP:  79;

RAYMOND        FAIR      75  70  83 CALM      29.97S
VICKSBURG      FAIR      75  72  90 CALM      29.96S
6HR MIN TEMP:  75; 6HR MAX TEMP:  87;

$$

MSZ059>079-200700-
SOUTH MISSISSIPPI

CITY           SKY/WX    TMP DP  RH WIND       PRES   REMARKS
BROOKHAVEN     FAIR      77  73  88 CALM      29.99F
COLUMBIA       FOG       75  73  94 MISG      29.97S VSB 1/2
HATTIESBURG    FAIR      78  73  84 SE3       29.98F
6HR MIN TEMP:  78; 6HR MAX TEMP:  91;

MCCOMB         FAIR      77  73  87 CALM      29.99S
6HR MIN TEMP:  76; 6HR MAX TEMP:  88;

NATCHEZ        FAIR      73  70  88 CALM      29.98S
6HR MIN TEMP:  73; 6HR MAX TEMP:  82;

PINE BELT      FAIR      73  70  88 CALM      29.99F
6HR MIN TEMP:  73; 6HR MAX TEMP:  90;

$$

MSZ080>082-200700-
COASTAL MISSISSIPPI

CITY           SKY/WX    TMP DP  RH WIND       PRES   REMARKS
BILOXI         FAIR      83  76  79 SW12      29.97F HX  91
6HR MIN TEMP:  80; 6HR MAX TEMP:  87;

PASCAGOULA     MOCLDY    79  76  90 CALM      29.97F
6HR MIN TEMP:  77; 6HR MAX TEMP:  85;

GULFPORT       FAIR      80  75  84 CALM      29.96F
6HR MIN TEMP:  79; 6HR MAX TEMP:  88;

$$



USA.gov is the U.S. government's official web portal to all federal, state and local government web resources and services.